This demonstration page uses our WeatherBlox Daily Observations layout. Learn more.

Left ArrowRight Arrow

34.02893, -84.19858

Hourly Observations for October 12, 2019

Temp ( °F °C ) Dew Point ( °F °C ) Humidity (%) Winds ( mph kmh ) Pressure ( in mb ) Visibility ( mi km ) Precip ( " mm )
12:53 am 00:53 Clear 59 15 55 12.8 87 87 Calm 30.03 1017 10 16 0.00 0.00
1:53 am 01:53 Clear 61 16.1 55 12.8 81 81 Calm 30.02 1017 10 16 0.00 0.00
2:53 am 02:53 Clear 60 15.6 55 12.8 84 84 Calm 30.01 1016 10 16 0.00 0.00
3:53 am 03:53 Clear 60 15.6 55 12.8 84 84 Calm 30.01 1016 10 16 0.00 0.00
4:53 am 04:53 Clear 60 15.6 55 12.8 84 84 Calm 30.00 1016 10 16 0.00 0.00
5:53 am 05:53 Clear 59 15 54 12.2 83 83 Calm 30.01 1016 10 16 0.00 0.00
6:53 am 06:53 Clear 58 14.4 53 11.7 84 84 Calm 30.03 1017 10 16 0.00 0.00
7:53 am 07:53 Sunny 56 13.3 54 12.2 93 93 Calm 30.04 1017 10 16 0.00 0.00
8:53 am 08:53 Sunny 63 17.2 56 13.3 78 78 Calm 30.04 1017 10 16 0.00 0.00
9:53 am 09:53 Mostly Sunny 69 20.6 54 12.2 59 59 SW 7 11 30.04 1017 10 16 0.00 0.00
10:53 am 10:53 Mostly Sunny 74 23.3 57 13.9 56 56 WNW 7 11 30.04 1017 10 16 0.00 0.00
11:53 am 11:53 Mostly Sunny 75 23.9 58 14.4 55 55 W 7 11 30.04 1017 10 16 0.00 0.00
12:53 pm 12:53 Cloudy 77 25 57 13.9 50 50 W 7 11 30.03 1017 10 16 0.00 0.00
1:53 pm 13:53 Mostly Cloudy 78 25.6 58 14.4 50 50 W 6 9 30.01 1016 10 16 0.00 0.00
2:53 pm 14:53 Cloudy 77 25 58 14.4 52 52 WNW 10 17 30.00 1016 10 16 0.00 0.00
3:53 pm 15:53 Cloudy 77 25 59 15 54 54 NW 9 15 30.00 1016 10 16 0.00 0.00
4:53 pm 16:53 Cloudy 76 24.4 59 15 56 56 WNW 7 11 30.00 1016 10 16 0.00 0.00
5:53 pm 17:53 Cloudy 73 22.8 59 15 62 62 W 8 13 30.01 1016 10 16 0.00 0.00
6:53 pm 18:53 Mostly Cloudy 71 21.7 57 13.9 61 61 NNW 9 15 30.01 1016 10 16 0.00 0.00
7:53 pm 19:53 Partly Cloudy 69 20.6 56 13.3 63 63 NNW 6 9 30.02 1017 10 16 0.00 0.00
8:53 pm 20:53 Mostly Cloudy 67 19.4 55 12.8 66 66 NNW 7 11 30.02 1017 10 16 0.00 0.00
9:53 pm 21:53 Cloudy 66 18.9 55 12.8 68 68 NNW 5 7 30.01 1016 10 16 0.00 0.00
10:53 pm 22:53 Cloudy 65 18.3 55 12.8 70 70 NW 6 9 30.01 1016 10 16 0.00 0.00
11:53 pm 23:53 Cloudy 64 17.8 55 12.8 73 73 NW 5 7 30.01 1016 10 16 0.00 0.00

Powered by AerisWeather